Tracking 25707 objects as of 29-Jun-2022
HD Live streaming from Space Station
objects crossing your sky now

STARLINK-3930

Track STARLINK-3930 now!
10-day predictions
STARLINK-3930 is classified as:


NORAD ID: 52568
Int'l Code: 2022-051AM
Perigee: 356.9 km
Apogee: 359.5 km
Inclination: 53.2 °
Period: 91.6 minutes
Semi major axis: 6729 km
RCS: Unknown
Launch date: May 13, 2022
Source: United States (US)
Launch site: AIR FORCE WESTERN TEST RANGE (AFWTR)
aabbcc
Your satellite tracking list
Your tracking list is empty




NASA's NSSDC Master Catalog

Two Line Element Set (TLE):
1 52568U 22051AM  22180.58334491 -.01053972  00000-0 -85094-2 0  9993
2 52568  53.2173  62.1527 0001875  27.3502 224.6617 15.72741394  1307
Source of the keplerian elements: AFSPC